TimePST,TemperatureF,Dew PointF,Humidity,Sea Level PressureIn,VisibilityMPH,Wind Direction,Wind SpeedMPH,Gust SpeedMPH,PrecipitationIn,Events,Conditions,WindDirDegrees,DateUTC
12:53 AM,33.1,25.0,72,30.19,10.0,Calm,Calm,-,N/A,,Clear,0,2013-03-09 08:53:00
1:53 AM,32.0,24.1,73,30.20,10.0,Calm,Calm,-,N/A,,Clear,0,2013-03-09 09:53:00
2:53 AM,28.9,23.0,78,30.22,10.0,Calm,Calm,-,N/A,,Clear,0,2013-03-09 10:53:00
3:53 AM,27.0,21.0,78,30.24,10.0,East,3.5,-,N/A,,Clear,80,2013-03-09 11:53:00
4:53 AM,27.0,21.9,81,30.26,10.0,East,3.5,-,N/A,,Clear,80,2013-03-09 12:53:00
5:53 AM,24.1,19.0,81,30.29,10.0,Calm,Calm,-,N/A,,Clear,0,2013-03-09 13:53:00
6:53 AM,26.1,21.0,81,30.30,10.0,ENE,3.5,-,N/A,,Clear,60,2013-03-09 14:53:00
7:53 AM,34.0,27.0,75,30.32,-9999.0,Calm,Calm,-,N/A,,Clear,0,2013-03-09 15:53:00
8:53 AM,37.0,28.0,70,30.34,10.0,Calm,Calm,-,N/A,,Clear,0,2013-03-09 16:53:00
9:53 AM,43.0,28.9,58,30.35,10.0,South,3.5,-,N/A,,Clear,190,2013-03-09 17:53:00
10:53 AM,46.0,30.0,54,30.35,10.0,Variable,3.5,-,N/A,,Clear,0,2013-03-09 18:53:00
11:53 AM,51.1,30.0,44,30.34,10.0,South,6.9,-,N/A,,Clear,170,2013-03-09 19:53:00
12:53 PM,55.0,26.1,33,30.33,10.0,SSW,5.8,-,N/A,,Clear,210,2013-03-09 20:53:00
1:53 PM,59.0,21.9,24,30.32,10.0,Variable,3.5,-,N/A,,Clear,0,2013-03-09 21:53:00
2:53 PM,61.0,21.9,22,30.32,10.0,WNW,18.4,24.2,N/A,,Clear,290,2013-03-09 22:53:00
3:53 PM,57.9,23.0,26,30.33,10.0,NW,19.6,-,N/A,,Clear,320,2013-03-09 23:53:00
4:53 PM,55.0,21.9,28,30.33,10.0,NW,20.7,-,N/A,,Clear,320,2013-03-10 00:53:00
5:53 PM,50.0,21.0,32,30.36,10.0,NNW,17.3,-,N/A,,Clear,330,2013-03-10 01:53:00
6:53 PM,45.0,24.1,44,30.40,10.0,NW,16.1,-,N/A,,Clear,320,2013-03-10 02:53:00
7:53 PM,44.1,25.0,47,30.41,10.0,NW,16.1,-,N/A,,Clear,310,2013-03-10 03:53:00
8:53 PM,43.0,26.1,51,30.42,10.0,WNW,13.8,-,N/A,,Clear,290,2013-03-10 04:53:00
9:53 PM,43.0,27.0,53,30.41,10.0,NW,15.0,19.6,N/A,,Clear,320,2013-03-10 05:53:00
10:53 PM,39.9,26.1,58,30.41,10.0,NW,12.7,-,N/A,,Clear,320,2013-03-10 06:53:00
11:53 PM,42.1,26.1,53,30.40,10.0,WNW,12.7,-,N/A,,Clear,300,2013-03-10 07:53:00